Back to catalog

METEOSAT 7

AliveWeatherGEO
NORAD 24932·PAYLOAD·🇪🇺 EU

Launched Sep 2, 1997 from Guiana Space Centre

Loading…

TLE

FreshSource: Space-Track

Epoch: Sep 14, 2026, 14:19 UTC

1 24932U 97049B   26257.59706378 -.00000235  00000-0  00000-0 0  9997
2 24932  13.7873  14.3213 0007054  62.8372 293.3815  0.98311997105621

Track METEOSAT 7 in real time with AllMySat

Download on the App Store